Satellite-Ground Cal/Val Site Overpasses Predictions

Prediction of Satellite NPP Overpassing Cal/Val Site: Antarctic Dome C

Ground Cal/Val Site Location: Latitude: -75.10, Longitude: 123.35; Satellite-Ground Site NADIR distance within 100 km.

Table of predicted overpasses for the next 14.0 days since TLE Epoch: 9/3/2024
Interval Starting Time Ending Time Minimum Distance Time Minimum Distance (km)
1 09/04/2024 07:44:27 09/04/2024 07:44:46 09/04/2024 07:44:37 74.96
2 09/05/2024 07:25:33 09/05/2024 07:26:01 09/05/2024 07:25:47 32.80
3 09/07/2024 15:08:00 09/07/2024 15:08:03 09/07/2024 15:08:01 98.98
4 09/08/2024 14:48:55 09/08/2024 14:49:24 09/08/2024 14:49:10 12.84
5 09/10/2024 07:31:43 09/10/2024 07:32:13 09/10/2024 07:31:58 3.45
6 09/13/2024 14:55:05 09/13/2024 14:55:34 09/13/2024 14:55:19 23.44
7 09/14/2024 14:36:21 09/14/2024 14:36:37 09/14/2024 14:36:29 83.94
8 09/15/2024 07:37:53 09/15/2024 07:38:19 09/15/2024 07:38:06 38.56
